Regional Weather Roundup
Issued by NWS

Home | Current Version | Previous Version | Graphics & Text | Print | Product List | Glossary On
Versions: 1 2 3 4 5 6 7 8 9 10 11 12 13 14 15 16 17 18 19 20 21 22 23 24 25 26 27 28 29 30 31 32 33 34 35 36 37 38 39 40 41 42 43 44 45 46 47 48 49 50
000
ASUS43 KLOT 300410
RWRIL

ILLINOIS REGIONAL WEATHER ROUNDUP
NATIONAL WEATHER SERVICE CHICAGO/ROMEOVILLE IL
1000 PM CST THU JAN 29 2015

NOTE: "FAIR" INDICATES FEW OR NO CLOUDS BELOW 12,000 FEET WITH NO
SIGNIFICANT WEATHER AND/OR OBSTRUCTIONS TO VISIBILITY.

* THESE STATIONS ARE NOT UNDER NWS QUALITY CONTROL. THEY ALSO MAY NOT
  REPORT WEATHER SUCH AS PRECIPITATION OR FOG.

ILZ001-002-007-009-015-016-024-300500-
NORTHWEST ILLINOIS

CITY           SKY/WX    TMP DP  RH WIND       PRES   REMARKS
MOLINE         CLOUDY    30  19  63 NW21G31   30.38R WCI  17
STERLING*      CLOUDY    32  21  64 NW16      30.33R WCI  21
SAVANNA*       CLOUDY    32  20  62 NW15G21   30.36R WCI  21
$$

ILZ003-004-008-010-011-017-018-300500-
NORTH CENTRAL ILLINOIS

CITY           SKY/WX    TMP DP  RH WIND       PRES   REMARKS
ROCKFORD       FLURRIES  32  18  56 NW18G30   30.32R WCI  20
FREEPORT*      CLOUDY    29  19  65 NW21      30.34R WCI  16
ROCHELLE*      CLOUDY    31  22  69 NW9       30.30R WCI  23
DE KALB*       CLOUDY    31  19  61 NW13      30.28R WCI  21
PERU*          CLOUDY    33  26  73 NW17      30.32R WCI  23
$$

ILZ005-006-012>014-019>023-300500-
NORTHEAST ILLINOIS

CITY           SKY/WX    TMP DP  RH WIND       PRES   REMARKS
CHICAGO-OHARE  CLOUDY    33  21  61 NW14      30.24R WCI  23
CHICAGO-MIDWAY FLURRIES  36  20  52 NW14      30.25R WCI  27
AURORA         CLOUDY    33  23  66 NW10      30.28R WCI  25
LANSING*       CLOUDY    34  19  54 NW16G22   30.24R WCI  24
JOLIET*        CLOUDY    34  19  53 NW9G18    30.27R WCI  27
WAUKEGAN       CLOUDY    31  19  61 N10G20    30.25R WCI  22
DUPAGE AIRPORT CLOUDY    33  19  56 NW18G30   30.25R WCI  22
KANKAKEE*      CLOUDY    34  24  66 NW8       30.27R WCI  27
WHEELING       CLOUDY    33  19  56 NW13G22   30.26R WCI  24
MORRIS*        CLOUDY    33  28  80 NW12      30.27R WCI  24
ROMEOVILLE*    CLOUDY    34  20  58 NW16G24   30.26R WCI  23
NORTHERLY ISL    N/A     35  17  48 NW14        N/A  WCI  26
$$

LMZ740>746-300500-
SOUTHERN LAKE MICHIGAN

STATION/POSITION SKY/WX   TEMP    WIND        PRES    VSBY  WAVE
                          AIR SEA DIR/SP/G                  HT/PER
                          (F)     (DEG/KT/KT) (MB)    (MI)  (FT/S)
WAUKEGAN HARBOR            33     340/ 17/ 23   N/A
HARRISON CRIB              34     320/ 18/ 21   N/A
BURNHAM HARBOR             35     320/ 11/ 21   N/A
CALUMET HARBOR             35     310/  8/ 16   N/A
MICHIGAN CITY              34     330/ 25/ 29   N/A
$$

ILZ025>027-034>036-040-047-049-050-058-095>099-300500-
WEST-CENTRAL ILLINOIS

CITY           SKY/WX    TMP DP  RH WIND       PRES   REMARKS
QUINCY         CLOUDY    32  22  66 NW21G26   30.42R WCI  20
GALESBURG*     CLOUDY    31  24  73 NW17G26   30.37R WCI  20
MACOMB*        CLOUDY    32  25  74 NW16G24   30.42R WCI  21
JACKSONVILLE*  CLOUDY    36  26  67 NW12G20   30.39R WCI  27
PITTSFIELD*    CLOUDY    34  24  67 NW15G22   30.43R WCI  25
$$

ILZ028>032-037-038-041>044-048-051>054-059>061-300500-
CENTRAL ILLINOIS

CITY           SKY/WX    TMP DP  RH WIND       PRES   REMARKS
PONTIAC        CLOUDY    34  30  83 NW14      30.30R WCI  25
BLOOMINGTON    CLOUDY    33  25  73 NW18      30.32R WCI  22
DECATUR        CLOUDY    34  25  69 NW15G26   30.34R WCI  24
PEORIA         CLOUDY    34  21  59 NW9G25    30.36R WCI  27
LACON*         CLOUDY    32  25  73 NW15G23   30.33R WCI  22
LINCOLN*       CLOUDY    35  27  73 NW6       30.37R WCI  30
SPRINGFIELD    CLOUDY    34  26  72 NW15G22   30.37R WCI  24
TAYLORVILLE    CLOUDY    32  27  80 NW16G24   30.37R WCI  21
$$

ILZ033-039-045-046-055>057-062-063-300500-
EAST-CENTRAL ILLINOIS

CITY           SKY/WX    TMP DP  RH WIND       PRES   REMARKS
CHAMPAIGN      CLOUDY    34  28  79 NW17      30.30R WCI  23
DANVILLE*      CLOUDY    33  28  82 NW12      30.24R WCI  25
RANTOUL*       CLOUDY    35  30  82 NW16G26   30.29R WCI  25
MATTOON        CLOUDY    33  27  78 NW22      30.31R WCI  21
PARIS*         CLOUDY    34  31  90 NW9       30.30R WCI  26
$$

ILZ079-100>102-300500-
SOUTHWEST ILLINOIS

CITY           SKY/WX    TMP DP  RH WIND       PRES   REMARKS
ALTON          CLOUDY    36  26  69 NW12G18   30.41R WCI  27
BELLEVILLE     CLOUDY    36  27  68 NW13G22   30.40R WCI  28
CAHOKIA*       CLOUDY    37  26  64 NW22G29   30.42R WCI  26
SPARTA*        CLOUDY    36  27  69 NW16G23   30.41R WCI  26
$$

ILZ064>066-069>071-074>076-080>082-084>086-088>090-092>094-300500-
SOUTH-CENTRAL ILLINOIS

CITY           SKY/WX    TMP DP  RH WIND       PRES   REMARKS
CARBONDALE     CLOUDY    38  27  64 N12G21    30.39S WCI  30
CAIRO*         CLOUDY    43  31  63 N17G23    30.39R
EFFINGHAM*     CLOUDY    35  26  72 W16       30.36R WCI  24
MARION         CLOUDY    37  30  75 N5        30.40R WCI  34
MT. VERNON     CLOUDY    36  25  64 NW6       30.38R WCI  31
CENTRALIA*     CLOUDY    35  27  75 NW13G21   30.38R WCI  26
SALEM*         CLOUDY    36  28  74 NW12G18   30.38R WCI  28
METROPOLIS*    CLOUDY    40  32  73 N12G21    30.37R
$$

ILZ067-068-072-073-078-083-087-091-300500-
SOUTHEAST ILLINOIS

CITY           SKY/WX    TMP DP  RH WIND       PRES   REMARKS
LAWRENCEVILLE  CLOUDY    36  31  82 NW15      30.33R WCI  27
FLORA*         CLOUDY    34  29  83 NW14      30.36S WCI  25
FAIRFIELD*     CLOUDY    36  28  74 NW8G17    30.36R WCI  29
HARRISBURG*    CLOUDY    37  30  77 NW15      30.39R WCI  28
ROBINSON*      CLOUDY    35  31  86 NW12      30.32S WCI  27
CARMI*         CLOUDY    38  32  81 NW15G25   30.36R WCI  29
$$

ABBREVIATIONS USED IN REMARKS
   TC - TEMPERATURE IN CELSIUS
  WCI - WIND CHILL INDEX
   HX - HEAT INDEX
  VSB - VISIBILITY
$$




USA.gov is the U.S. government's official web portal to all federal, state and local government web resources and services.